START_TIME,STEP,MOV.,P1,t_acc.,E44,t_acc.,A3,t_acc.,P10,t_acc.
1979-07-21 18:00:22.920 ,0,0,3.,1.2,140.,1.2,0.,1.2,0.,1.2
1979-07-21 18:00:24.120 ,0,0,1.,1.2,3.,1.2,0.,1.2,0.,1.2
1979-07-21 18:00:25.320 ,0,0,2.,1.2,3.,1.2,0.,1.2,0.,1.2
1979-07-21 18:00:26.520 ,0,0,1.,1.2,5.,1.2,0.,1.2,0.,1.2
1979-07-21 18:00:27.720 ,0,0,0.,1.2,8.,1.2,0.,1.2,0.,1.2
1979-07-21 18:00:28.920 ,0,0,2.,1.2,176.,1.2,0.,1.2,0.,1.2
1979-07-21 18:00:30.120 ,0,0,0.,1.2,3.,1.2,1.,1.2,0.,1.2
1979-07-21 18:00:31.320 ,0,0,1.,1.2,4.,1.2,0.,1.2,0.,1.2
1979-07-21 18:00:32.520 ,0,0,3.,1.2,7.,1.2,0.,1.2,0.,1.2
1979-07-21 18:00:33.720 ,0,0,3.,1.2,2.,1.2,0.,1.2,0.,1.2
1979-07-21 18:00:34.920 ,0,0,1.,1.2,200.,1.2,0.,1.2,0.,1.2
1979-07-21 18:00:36.120 ,0,0,1.,1.2,7.,1.2,0.,1.2,0.,1.2
1979-07-21 18:00:37.320 ,0,0,2.,1.2,8.,1.2,0.,1.2,0.,1.2
1979-07-21 18:00:38.520 ,0,0,1.,1.2,5.,1.2,0.,1.2,0.,1.2
1979-07-21 18:00:39.720 ,0,0,2.,1.2,5.,1.2,0.,1.2,0.,1.2
1979-07-21 18:00:40.920 ,0,0,1.,1.2,10.,1.2,0.,1.2,0.,1.2
1979-07-21 18:00:42.120 ,0,0,0.,1.2,3.,1.2,0.,1.2,0.,1.2
1979-07-21 18:00:43.320 ,0,0,0.,1.2,2.,1.2,0.,1.2,0.,1.2
1979-07-21 18:00:44.520 ,0,0,1.,1.2,4.,1.2,0.,1.2,0.,1.2
1979-07-21 18:00:45.720 ,0,0,2.,1.2,0.,1.2,0.,1.2,0.,1.2
1979-07-21 18:00:46.920 ,4,0,0.,1.2,144.,1.2,0.,1.2,0.,1.2
1979-07-21 18:00:48.120 ,4,0,1.,1.2,3.,1.2,0.,1.2,0.,1.2
1979-07-21 18:00:49.320 ,4,0,0.,1.2,4.,1.2,0.,1.2,0.,1.2
1979-07-21 18:00:50.520 ,4,0,1.,1.2,4.,1.2,0.,1.2,0.,1.2
1979-07-21 18:00:51.720 ,4,0,2.,1.2,11.,1.2,1.,1.2,0.,1.2
1979-07-21 18:00:52.920 ,4,0,2.,1.2,160.,1.2,0.,1.2,0.,1.2
1979-07-21 18:00:54.120 ,4,0,1.,1.2,5.,1.2,0.,1.2,0.,1.2
1979-07-21 18:00:55.320 ,4,0,1.,1.2,7.,1.2,0.,1.2,0.,1.2
1979-07-21 18:00:56.520 ,4,0,1.,1.2,6.,1.2,1.,1.2,0.,1.2
1979-07-21 18:00:57.720 ,4,0,1.,1.2,6.,1.2,0.,1.2,0.,1.2
1979-07-21 18:00:58.920 ,4,0,0.,1.2,168.,1.2,0.,1.2,0.,1.2
1979-07-21 18:01:00.120 ,4,0,0.,1.2,8.,1.2,0.,1.2,0.,1.2
1979-07-21 18:01:01.320 ,4,0,1.,1.2,3.,1.2,0.,1.2,0.,1.2
1979-07-21 18:01:02.520 ,4,0,0.,1.2,8.,1.2,0.,1.2,0.,1.2
1979-07-21 18:01:03.720 ,4,0,3.,1.2,1.,1.2,0.,1.2,0.,1.2
1979-07-21 18:01:04.920 ,4,0,3.,1.2,172.,1.2,0.,1.2,0.,1.2
1979-07-21 18:01:06.120 ,4,0,0.,1.2,3.,1.2,0.,1.2,0.,1.2
1979-07-21 18:01:07.320 ,4,0,2.,1.2,3.,1.2,0.,1.2,0.,1.2
1979-07-21 18:01:08.520 ,4,0,3.,1.2,4.,1.2,0.,1.2,0.,1.2
1979-07-21 18:01:09.720 ,4,0,2.,1.2,3.,1.2,0.,1.2,0.,1.2
1979-07-21 18:01:10.920 ,7,0,0.,1.2,152.,1.2,0.,1.2,0.,1.2
1979-07-21 18:01:12.120 ,7,0,1.,1.2,6.,1.2,0.,1.2,0.,1.2
1979-07-21 18:01:13.320 ,7,0,3.,1.2,2.,1.2,0.,1.2,0.,1.2
1979-07-21 18:01:14.520 ,7,0,4.,1.2,4.,1.2,0.,1.2,0.,1.2
1979-07-21 18:01:15.720 ,7,0,3.,1.2,11.,1.2,0.,1.2,0.,1.2
1979-07-21 18:01:16.920 ,7,0,5.,1.2,160.,1.2,0.,1.2,1.,1.2
1979-07-21 18:01:18.120 ,7,0,2.,1.2,6.,1.2,1.,1.2,1.,1.2
1979-07-21 18:01:19.320 ,7,0,1.,1.2,6.,1.2,0.,1.2,0.,1.2
1979-07-21 18:01:20.520 ,7,0,0.,1.2,4.,1.2,0.,1.2,0.,1.2
1979-07-21 18:01:21.720 ,7,0,3.,1.2,4.,1.2,0.,1.2,0.,1.2
1979-07-21 18:01:22.920 ,7,0,0.,1.2,192.,1.2,3.,1.2,0.,1.2
1979-07-21 18:01:24.120 ,7,0,1.,1.2,7.,1.2,5.,1.2,0.,1.2
1979-07-21 18:01:25.320 ,7,0,0.,1.2,6.,1.2,7.,1.2,0.,1.2
1979-07-21 18:01:26.520 ,7,0,0.,1.2,5.,1.2,2.,1.2,0.,1.2
1979-07-21 18:01:27.720 ,7,0,0.,1.2,7.,1.2,5.,1.2,0.,1.2
1979-07-21 18:01:28.920 ,7,0,0.,1.2,13.,1.2,4.,1.2,0.,1.2
1979-07-21 18:01:30.120 ,7,0,0.,1.2,5.,1.2,3.,1.2,0.,1.2
1979-07-21 18:01:31.320 ,7,0,0.,1.2,9.,1.2,4.,1.2,0.,1.2
1979-07-21 18:01:32.520 ,7,0,0.,1.2,2.,1.2,9.,1.2,0.,1.2
1979-07-21 18:01:33.720 ,7,0,0.,1.2,5.,1.2,5.,1.2,0.,1.2
1979-07-21 18:01:34.920 ,3,0,0.,1.2,176.,1.2,1.,1.2,0.,1.2
1979-07-21 18:01:36.120 ,3,0,0.,1.2,2.,1.2,0.,1.2,0.,1.2
1979-07-21 18:01:37.320 ,3,0,3.,1.2,6.,1.2,0.,1.2,0.,1.2
1979-07-21 18:01:38.520 ,3,0,1.,1.2,4.,1.2,0.,1.2,0.,1.2
1979-07-21 18:01:39.720 ,3,0,0.,1.2,3.,1.2,0.,1.2,0.,1.2
1979-07-21 18:01:40.920 ,3,0,1.,1.2,140.,1.2,0.,1.2,0.,1.2
1979-07-21 18:01:42.120 ,3,0,2.,1.2,2.,1.2,0.,1.2,1.,1.2
1979-07-21 18:01:43.320 ,3,0,1.,1.2,7.,1.2,0.,1.2,0.,1.2
1979-07-21 18:01:44.520 ,3,0,3.,1.2,10.,1.2,0.,1.2,0.,1.2
1979-07-21 18:01:45.720 ,3,0,2.,1.2,3.,1.2,0.,1.2,0.,1.2
1979-07-21 18:01:46.920 ,3,0,3.,1.2,120.,1.2,0.,1.2,0.,1.2
1979-07-21 18:01:48.120 ,3,0,1.,1.2,9.,1.2,0.,1.2,0.,1.2
1979-07-21 18:01:49.320 ,3,0,1.,1.2,5.,1.2,0.,1.2,0.,1.2
1979-07-21 18:01:50.520 ,3,0,1.,1.2,7.,1.2,0.,1.2,0.,1.2
1979-07-21 18:01:51.720 ,3,0,2.,1.2,5.,1.2,0.,1.2,0.,1.2
1979-07-21 18:01:52.920 ,3,0,4.,1.2,196.,1.2,0.,1.2,0.,1.2
1979-07-21 18:01:54.120 ,3,0,1.,1.2,6.,1.2,0.,1.2,0.,1.2
1979-07-21 18:01:55.320 ,3,0,2.,1.2,7.,1.2,0.,1.2,0.,1.2
1979-07-21 18:01:56.520 ,3,0,2.,1.2,1.,1.2,0.,1.2,0.,1.2
1979-07-21 18:01:57.720 ,3,0,2.,1.2,7.,1.2,0.,1.2,0.,1.2
1979-07-21 18:01:58.920 ,0,0,1.,1.2,152.,1.2,0.,1.2,0.,1.2
1979-07-21 18:02:00.120 ,0,0,2.,1.2,2.,1.2,1.,1.2,0.,1.2
1979-07-21 18:02:01.320 ,0,0,0.,1.2,10.,1.2,0.,1.2,0.,1.2
1979-07-21 18:02:02.520 ,0,0,0.,1.2,3.,1.2,0.,1.2,0.,1.2
1979-07-21 18:02:03.720 ,0,0,6.,1.2,5.,1.2,0.,1.2,0.,1.2
1979-07-21 18:02:04.920 ,0,0,0.,1.2,196.,1.2,0.,1.2,0.,1.2
1979-07-21 18:02:06.120 ,0,0,2.,1.2,8.,1.2,0.,1.2,0.,1.2
1979-07-21 18:02:07.320 ,0,0,1.,1.2,6.,1.2,0.,1.2,0.,1.2
1979-07-21 18:02:08.520 ,0,0,0.,1.2,5.,1.2,0.,1.2,0.,1.2
1979-07-21 18:02:09.720 ,0,0,0.,1.2,9.,1.2,0.,1.2,0.,1.2
1979-07-21 18:02:10.920 ,0,0,1.,1.2,224.,1.2,0.,1.2,0.,1.2
1979-07-21 18:02:12.120 ,0,0,1.,1.2,5.,1.2,0.,1.2,0.,1.2
1979-07-21 18:02:13.320 ,0,0,2.,1.2,5.,1.2,0.,1.2,0.,1.2
1979-07-21 18:02:14.520 ,0,0,1.,1.2,6.,1.2,0.,1.2,0.,1.2
1979-07-21 18:02:15.720 ,0,0,1.,1.2,4.,1.2,0.,1.2,0.,1.2
1979-07-21 18:02:16.920 ,0,0,3.,1.2,9.,1.2,0.,1.2,0.,1.2
1979-07-21 18:02:18.120 ,0,0,0.,1.2,7.,1.2,0.,1.2,0.,1.2
1979-07-21 18:02:19.320 ,0,0,0.,1.2,3.,1.2,0.,1.2,0.,1.2
1979-07-21 18:02:20.520 ,0,0,1.,1.2,6.,1.2,0.,1.2,0.,1.2
1979-07-21 18:02:21.720 ,0,0,2.,1.2,1.,1.2,0.,1.2,0.,1.2
1979-07-21 18:02:22.920 ,4,0,2.,1.2,148.,1.2,0.,1.2,0.,1.2
1979-07-21 18:02:24.120 ,4,0,0.,1.2,4.,1.2,0.,1.2,0.,1.2
1979-07-21 18:02:25.320 ,4,0,3.,1.2,7.,1.2,1.,1.2,0.,1.2
1979-07-21 18:02:26.520 ,4,0,1.,1.2,1.,1.2,0.,1.2,0.,1.2
1979-07-21 18:02:27.720 ,4,0,0.,1.2,3.,1.2,0.,1.2,0.,1.2
1979-07-21 18:02:28.920 ,4,0,0.,1.2,188.,1.2,0.,1.2,0.,1.2
1979-07-21 18:02:30.120 ,4,0,3.,1.2,7.,1.2,0.,1.2,0.,1.2
1979-07-21 18:02:31.320 ,4,0,0.,1.2,3.,1.2,0.,1.2,0.,1.2
1979-07-21 18:02:32.520 ,4,0,0.,1.2,3.,1.2,0.,1.2,0.,1.2
1979-07-21 18:02:33.720 ,4,0,5.,1.2,3.,1.2,0.,1.2,0.,1.2
1979-07-21 18:02:34.920 ,4,0,2.,1.2,164.,1.2,0.,1.2,0.,1.2
1979-07-21 18:02:36.120 ,4,0,3.,1.2,4.,1.2,1.,1.2,0.,1.2
1979-07-21 18:02:37.320 ,4,0,3.,1.2,5.,1.2,0.,1.2,0.,1.2
1979-07-21 18:02:38.520 ,4,0,2.,1.2,5.,1.2,0.,1.2,0.,1.2
1979-07-21 18:02:39.720 ,4,0,0.,1.2,5.,1.2,0.,1.2,0.,1.2
1979-07-21 18:02:40.920 ,4,0,1.,1.2,148.,1.2,0.,1.2,0.,1.2
1979-07-21 18:02:42.120 ,4,0,0.,1.2,6.,1.2,0.,1.2,0.,1.2
1979-07-21 18:02:43.320 ,4,0,2.,1.2,5.,1.2,0.,1.2,0.,1.2
1979-07-21 18:02:44.520 ,4,0,2.,1.2,4.,1.2,0.,1.2,0.,1.2
1979-07-21 18:02:45.720 ,4,0,0.,1.2,6.,1.2,0.,1.2,0.,1.2
1979-07-21 18:02:46.920 ,7,0,1.,1.2,172.,1.2,1.,1.2,0.,1.2
1979-07-21 18:02:48.120 ,7,0,0.,1.2,4.,1.2,1.,1.2,0.,1.2
1979-07-21 18:02:49.320 ,7,0,2.,1.2,3.,1.2,0.,1.2,0.,1.2
1979-07-21 18:02:50.520 ,7,0,0.,1.2,7.,1.2,0.,1.2,0.,1.2
1979-07-21 18:02:51.720 ,7,0,2.,1.2,5.,1.2,0.,1.2,0.,1.2
1979-07-21 18:02:52.920 ,7,0,3.,1.2,184.,1.2,0.,1.2,0.,1.2
1979-07-21 18:02:54.120 ,7,0,0.,1.2,4.,1.2,0.,1.2,0.,1.2
1979-07-21 18:02:55.320 ,7,0,5.,1.2,6.,1.2,0.,1.2,0.,1.2
1979-07-21 18:02:56.520 ,7,0,0.,1.2,7.,1.2,0.,1.2,0.,1.2
1979-07-21 18:02:57.720 ,7,0,7.,1.2,6.,1.2,0.,1.2,0.,1.2
1979-07-21 18:02:58.920 ,7,0,2.,1.2,184.,1.2,1.,1.2,0.,1.2
1979-07-21 18:03:00.120 ,7,0,0.,1.2,9.,1.2,1.,1.2,0.,1.2
1979-07-21 18:03:01.320 ,7,0,0.,1.2,6.,1.2,7.,1.2,0.,1.2
1979-07-21 18:03:02.520 ,7,0,0.,1.2,7.,1.2,4.,1.2,0.,1.2
1979-07-21 18:03:03.720 ,7,0,0.,1.2,4.,1.2,4.,1.2,0.,1.2
1979-07-21 18:03:04.920 ,7,0,0.,1.2,12.,1.2,6.,1.2,0.,1.2
1979-07-21 18:03:06.120 ,7,0,0.,1.2,8.,1.2,7.,1.2,0.,1.2
1979-07-21 18:03:07.320 ,7,0,0.,1.2,5.,1.2,3.,1.2,0.,1.2
1979-07-21 18:03:08.520 ,7,0,0.,1.2,5.,1.2,4.,1.2,0.,1.2
1979-07-21 18:03:09.720 ,7,0,0.,1.2,8.,1.2,6.,1.2,0.,1.2
1979-07-21 18:03:10.920 ,3,0,1.,1.2,160.,1.2,0.,1.2,0.,1.2
1979-07-21 18:03:12.120 ,3,0,1.,1.2,6.,1.2,0.,1.2,0.,1.2
1979-07-21 18:03:13.320 ,3,0,0.,1.2,7.,1.2,0.,1.2,0.,1.2
1979-07-21 18:03:14.520 ,3,0,0.,1.2,3.,1.2,0.,1.2,0.,1.2
1979-07-21 18:03:15.720 ,3,0,3.,1.2,7.,1.2,0.,1.2,0.,1.2
1979-07-21 18:03:16.920 ,3,0,0.,1.2,140.,1.2,0.,1.2,0.,1.2
1979-07-21 18:03:18.120 ,3,0,1.,1.2,5.,1.2,0.,1.2,0.,1.2
1979-07-21 18:03:19.320 ,3,0,0.,1.2,5.,1.2,0.,1.2,0.,1.2
1979-07-21 18:03:20.520 ,3,0,2.,1.2,5.,1.2,0.,1.2,0.,1.2
1979-07-21 18:03:21.720 ,3,0,2.,1.2,3.,1.2,0.,1.2,0.,1.2
1979-07-21 18:03:22.920 ,3,0,0.,1.2,122.,1.2,0.,1.2,0.,1.2
1979-07-21 18:03:24.120 ,3,0,3.,1.2,4.,1.2,0.,1.2,0.,1.2
1979-07-21 18:03:25.320 ,3,0,1.,1.2,3.,1.2,0.,1.2,0.,1.2
1979-07-21 18:03:26.520 ,3,0,4.,1.2,7.,1.2,0.,1.2,0.,1.2
1979-07-21 18:03:27.720 ,3,0,3.,1.2,6.,1.2,0.,1.2,0.,1.2
1979-07-21 18:03:28.920 ,3,0,1.,1.2,204.,1.2,0.,1.2,0.,1.2
1979-07-21 18:03:30.120 ,3,0,2.,1.2,6.,1.2,0.,1.2,0.,1.2
1979-07-21 18:03:31.320 ,3,0,1.,1.2,4.,1.2,2.,1.2,0.,1.2
1979-07-21 18:03:32.520 ,3,0,0.,1.2,4.,1.2,0.,1.2,0.,1.2
1979-07-21 18:03:33.720 ,3,0,3.,1.2,1.,1.2,0.,1.2,0.,1.2
1979-07-21 18:03:34.920 ,0,0,0.,1.2,172.,1.2,0.,1.2,0.,1.2
1979-07-21 18:03:36.120 ,0,0,1.,1.2,5.,1.2,0.,1.2,0.,1.2
1979-07-21 18:03:37.320 ,0,0,3.,1.2,6.,1.2,0.,1.2,0.,1.2
1979-07-21 18:03:38.520 ,0,0,1.,1.2,4.,1.2,0.,1.2,0.,1.2
1979-07-21 18:03:39.720 ,0,0,1.,1.2,7.,1.2,0.,1.2,0.,1.2
1979-07-21 18:03:40.920 ,0,0,3.,1.2,188.,1.2,0.,1.2,0.,1.2
1979-07-21 18:03:42.120 ,0,0,1.,1.2,9.,1.2,0.,1.2,1.,1.2
1979-07-21 18:03:43.320 ,0,0,2.,1.2,5.,1.2,0.,1.2,0.,1.2
1979-07-21 18:03:44.520 ,0,0,0.,1.2,8.,1.2,1.,1.2,0.,1.2
1979-07-21 18:03:45.720 ,0,0,3.,1.2,3.,1.2,0.,1.2,0.,1.2
1979-07-21 18:03:46.920 ,0,0,0.,1.2,204.,1.2,0.,1.2,0.,1.2
1979-07-21 18:03:48.120 ,0,0,0.,1.2,2.,1.2,1.,1.2,0.,1.2
1979-07-21 18:03:49.320 ,0,0,3.,1.2,7.,1.2,0.,1.2,0.,1.2
1979-07-21 18:03:50.520 ,0,0,0.,1.2,10.,1.2,0.,1.2,0.,1.2
1979-07-21 18:03:51.720 ,0,0,0.,1.2,5.,1.2,0.,1.2,0.,1.2
1979-07-21 18:03:52.920 ,0,0,1.,1.2,4.,1.2,0.,1.2,0.,1.2
1979-07-21 18:03:54.120 ,0,0,0.,1.2,3.,1.2,0.,1.2,0.,1.2
1979-07-21 18:03:55.320 ,0,0,0.,1.2,5.,1.2,0.,1.2,0.,1.2
1979-07-21 18:03:56.520 ,0,0,0.,1.2,4.,1.2,0.,1.2,0.,1.2
1979-07-21 18:03:57.720 ,0,0,0.,1.2,7.,1.2,0.,1.2,0.,1.2
1979-07-21 18:03:58.920 ,4,0,1.,1.2,168.,1.2,0.,1.2,0.,1.2
1979-07-21 18:04:00.120 ,4,0,3.,1.2,5.,1.2,0.,1.2,0.,1.2
1979-07-21 18:04:01.320 ,4,0,0.,1.2,3.,1.2,0.,1.2,0.,1.2
1979-07-21 18:04:02.520 ,4,0,1.,1.2,9.,1.2,1.,1.2,0.,1.2
1979-07-21 18:04:03.720 ,4,0,1.,1.2,6.,1.2,0.,1.2,0.,1.2
1979-07-21 18:04:04.920 ,4,0,2.,1.2,204.,1.2,0.,1.2,0.,1.2
1979-07-21 18:04:06.120 ,4,0,3.,1.2,4.,1.2,0.,1.2,0.,1.2
1979-07-21 18:04:07.320 ,4,0,2.,1.2,9.,1.2,0.,1.2,0.,1.2
1979-07-21 18:04:08.520 ,4,0,0.,1.2,5.,1.2,0.,1.2,0.,1.2
1979-07-21 18:04:09.720 ,4,0,0.,1.2,7.,1.2,0.,1.2,0.,1.2
1979-07-21 18:04:10.920 ,4,0,,0,,0,,0,,0
1979-07-21 18:04:12.120 ,4,0,,0,,0,,0,,0
1979-07-21 18:04:13.320 ,4,0,3.,1.2,5.,1.2,0.,1.2,0.,1.2
1979-07-21 18:04:14.520 ,4,0,1.,1.2,5.,1.2,0.,1.2,0.,1.2
1979-07-21 18:04:15.720 ,4,0,4.,1.2,8.,1.2,0.,1.2,0.,1.2
1979-07-21 18:04:16.920 ,4,0,2.,1.2,156.,1.2,0.,1.2,0.,1.2
1979-07-21 18:04:18.120 ,4,0,0.,1.2,5.,1.2,0.,1.2,0.,1.2
1979-07-21 18:04:19.320 ,4,0,2.,1.2,9.,1.2,0.,1.2,0.,1.2
1979-07-21 18:04:20.520 ,4,0,3.,1.2,4.,1.2,0.,1.2,0.,1.2
1979-07-21 18:04:21.720 ,4,0,3.,1.2,3.,1.2,1.,1.2,0.,1.2
1979-07-21 18:04:22.920 ,7,0,2.,1.2,136.,1.2,1.,1.2,0.,1.2
1979-07-21 18:04:24.120 ,7,0,3.,1.2,7.,1.2,0.,1.2,0.,1.2
1979-07-21 18:04:25.320 ,7,0,0.,1.2,9.,1.2,0.,1.2,0.,1.2
1979-07-21 18:04:26.520 ,7,0,0.,1.2,8.,1.2,0.,1.2,0.,1.2
1979-07-21 18:04:27.720 ,7,0,0.,1.2,6.,1.2,0.,1.2,0.,1.2
1979-07-21 18:04:28.920 ,7,0,2.,1.2,172.,1.2,0.,1.2,0.,1.2
1979-07-21 18:04:30.120 ,7,0,1.,1.2,10.,1.2,0.,1.2,0.,1.2
1979-07-21 18:04:31.320 ,7,0,1.,1.2,7.,1.2,0.,1.2,0.,1.2
1979-07-21 18:04:32.520 ,7,0,0.,1.2,6.,1.2,0.,1.2,0.,1.2
1979-07-21 18:04:33.720 ,7,0,0.,1.2,3.,1.2,0.,1.2,0.,1.2
1979-07-21 18:04:34.920 ,7,0,0.,1.2,156.,1.2,1.,1.2,0.,1.2
1979-07-21 18:04:36.120 ,7,0,0.,1.2,7.,1.2,8.,1.2,0.,1.2
1979-07-21 18:04:37.320 ,7,0,0.,1.2,3.,1.2,8.,1.2,0.,1.2
1979-07-21 18:04:38.520 ,7,0,0.,1.2,2.,1.2,8.,1.2,0.,1.2
1979-07-21 18:04:39.720 ,7,0,0.,1.2,12.,1.2,5.,1.2,0.,1.2
1979-07-21 18:04:40.920 ,7,0,0.,1.2,6.,1.2,10.,1.2,0.,1.2
1979-07-21 18:04:42.120 ,7,0,0.,1.2,6.,1.2,5.,1.2,0.,1.2
1979-07-21 18:04:43.320 ,7,0,0.,1.2,8.,1.2,4.,1.2,0.,1.2
1979-07-21 18:04:44.520 ,7,0,0.,1.2,5.,1.2,3.,1.2,0.,1.2
1979-07-21 18:04:45.720 ,7,0,0.,1.2,9.,1.2,11.,1.2,0.,1.2
1979-07-21 18:04:46.920 ,3,0,0.,1.2,168.,1.2,0.,1.2,0.,1.2
1979-07-21 18:04:48.120 ,3,0,6.,1.2,6.,1.2,0.,1.2,0.,1.2
1979-07-21 18:04:49.320 ,3,0,1.,1.2,3.,1.2,0.,1.2,0.,1.2
1979-07-21 18:04:50.520 ,3,0,1.,1.2,7.,1.2,0.,1.2,0.,1.2
1979-07-21 18:04:51.720 ,3,0,2.,1.2,6.,1.2,0.,1.2,0.,1.2
1979-07-21 18:04:52.920 ,3,0,1.,1.2,160.,1.2,0.,1.2,0.,1.2
1979-07-21 18:04:54.120 ,3,0,1.,1.2,12.,1.2,0.,1.2,0.,1.2
1979-07-21 18:04:55.320 ,3,0,0.,1.2,4.,1.2,0.,1.2,0.,1.2
1979-07-21 18:04:56.520 ,3,0,3.,1.2,9.,1.2,0.,1.2,0.,1.2
1979-07-21 18:04:57.720 ,3,0,0.,1.2,10.,1.2,0.,1.2,0.,1.2
1979-07-21 18:04:58.920 ,3,0,2.,1.2,110.,1.2,0.,1.2,0.,1.2
1979-07-21 18:05:00.120 ,3,0,1.,1.2,5.,1.2,0.,1.2,0.,1.2
1979-07-21 18:05:01.320 ,3,0,3.,1.2,4.,1.2,0.,1.2,0.,1.2
1979-07-21 18:05:02.520 ,3,0,0.,1.2,9.,1.2,0.,1.2,0.,1.2
1979-07-21 18:05:03.720 ,3,0,2.,1.2,10.,1.2,0.,1.2,0.,1.2
1979-07-21 18:05:04.920 ,3,0,2.,1.2,168.,1.2,0.,1.2,0.,1.2
1979-07-21 18:05:06.120 ,3,0,3.,1.2,8.,1.2,0.,1.2,0.,1.2
1979-07-21 18:05:07.320 ,3,0,2.,1.2,3.,1.2,0.,1.2,0.,1.2
1979-07-21 18:05:08.520 ,3,0,2.,1.2,2.,1.2,0.,1.2,0.,1.2
1979-07-21 18:05:09.720 ,3,0,0.,1.2,3.,1.2,0.,1.2,0.,1.2
1979-07-21 18:05:10.920 ,0,0,0.,1.2,164.,1.2,0.,1.2,0.,1.2
1979-07-21 18:05:12.120 ,0,0,3.,1.2,5.,1.2,0.,1.2,0.,1.2
1979-07-21 18:05:13.320 ,0,0,0.,1.2,14.,1.2,0.,1.2,0.,1.2
1979-07-21 18:05:14.520 ,0,0,3.,1.2,6.,1.2,0.,1.2,0.,1.2
1979-07-21 18:05:15.720 ,0,0,2.,1.2,3.,1.2,1.,1.2,0.,1.2
1979-07-21 18:05:16.920 ,0,0,2.,1.2,192.,1.2,0.,1.2,0.,1.2
1979-07-21 18:05:18.120 ,0,0,0.,1.2,6.,1.2,0.,1.2,0.,1.2
1979-07-21 18:05:19.320 ,0,0,1.,1.2,1.,1.2,0.,1.2,0.,1.2
1979-07-21 18:05:20.520 ,0,0,0.,1.2,6.,1.2,0.,1.2,0.,1.2
1979-07-21 18:05:21.720 ,0,0,2.,1.2,8.,1.2,0.,1.2,0.,1.2
1979-07-21 18:05:22.920 ,0,0,4.,1.2,192.,1.2,0.,1.2,0.,1.2
1979-07-21 18:05:24.120 ,0,0,0.,1.2,4.,1.2,0.,1.2,0.,1.2
1979-07-21 18:05:25.320 ,0,0,2.,1.2,5.,1.2,0.,1.2,0.,1.2
1979-07-21 18:05:26.520 ,0,0,2.,1.2,6.,1.2,2.,1.2,0.,1.2
1979-07-21 18:05:27.720 ,0,0,1.,1.2,5.,1.2,0.,1.2,0.,1.2
1979-07-21 18:05:28.920 ,0,0,1.,1.2,5.,1.2,0.,1.2,0.,1.2
1979-07-21 18:05:30.120 ,0,0,1.,1.2,9.,1.2,0.,1.2,0.,1.2
1979-07-21 18:05:31.320 ,0,0,1.,1.2,6.,1.2,1.,1.2,0.,1.2
1979-07-21 18:05:32.520 ,0,0,0.,1.2,4.,1.2,0.,1.2,0.,1.2
1979-07-21 18:05:33.720 ,0,0,,0,,0,,0,,0
1979-07-21 18:05:36.720 ,0,0,,0,,0,,0,,0
1979-07-21 18:05:37.920 ,0,0,4.,1.2,4.,1.2,0.,1.2,0.,1.2
1979-07-21 18:05:39.120 ,0,0,0.,1.2,7.,1.2,0.,1.2,0.,1.2
1979-07-21 18:05:40.320 ,0,0,1.,1.2,4.,1.2,0.,1.2,0.,1.2
1979-07-21 18:05:41.520 ,0,0,0.,1.2,6.,1.2,1.,1.2,0.,1.2
1979-07-21 18:05:42.720 ,0,0,0.,1.2,172.,1.2,0.,1.2,0.,1.2
1979-07-21 18:05:43.920 ,0,0,3.,1.2,7.,1.2,0.,1.2,0.,1.2
1979-07-21 18:05:45.120 ,0,0,0.,1.2,5.,1.2,0.,1.2,0.,1.2
1979-07-21 18:05:46.320 ,0,0,2.,1.2,7.,1.2,1.,1.2,0.,1.2
1979-07-21 18:05:47.520 ,0,0,2.,1.2,5.,1.2,0.,1.2,0.,1.2
1979-07-21 18:05:48.720 ,0,0,1.,1.2,152.,1.2,0.,1.2,0.,1.2
1979-07-21 18:05:49.920 ,0,0,2.,1.2,10.,1.2,0.,1.2,0.,1.2
1979-07-21 18:05:51.120 ,0,0,2.,1.2,5.,1.2,0.,1.2,1.,1.2
1979-07-21 18:05:52.320 ,0,0,2.,1.2,6.,1.2,0.,1.2,0.,1.2
1979-07-21 18:05:53.520 ,0,0,0.,1.2,3.,1.2,0.,1.2,0.,1.2
1979-07-21 18:05:54.720 ,0,0,1.,1.2,168.,1.2,0.,1.2,0.,1.2
1979-07-21 18:05:55.920 ,0,0,1.,1.2,8.,1.2,0.,1.2,0.,1.2
1979-07-21 18:05:57.120 ,0,0,1.,1.2,5.,1.2,0.,1.2,0.,1.2
1979-07-21 18:05:58.320 ,0,0,2.,1.2,6.,1.2,0.,1.2,1.,1.2
1979-07-21 18:05:59.520 ,0,0,2.,1.2,2.,1.2,0.,1.2,0.,1.2
1979-07-21 18:05:58.920 ,0,0,0.,1.2,156.,1.2,0.,1.2,0.,1.2
1979-07-21 18:06:00.120 ,0,0,7.,1.2,2.,1.2,0.,1.2,1.,1.2
1979-07-21 18:06:01.320 ,0,0,0.,1.2,8.,1.2,0.,1.2,0.,1.2
1979-07-21 18:06:02.520 ,0,0,0.,1.2,7.,1.2,0.,1.2,0.,1.2
1979-07-21 18:06:03.720 ,0,0,5.,1.2,9.,1.2,0.,1.2,0.,1.2
1979-07-21 18:06:04.920 ,0,0,3.,1.2,144.,1.2,0.,1.2,0.,1.2
1979-07-21 18:06:06.120 ,0,0,1.,1.2,5.,1.2,0.,1.2,0.,1.2
1979-07-21 18:06:07.320 ,0,0,2.,1.2,9.,1.2,0.,1.2,0.,1.2
1979-07-21 18:06:08.520 ,0,0,2.,1.2,7.,1.2,0.,1.2,0.,1.2
1979-07-21 18:06:09.720 ,0,0,3.,1.2,8.,1.2,0.,1.2,0.,1.2
1979-07-21 18:06:10.920 ,0,0,1.,1.2,192.,1.2,1.,1.2,0.,1.2
1979-07-21 18:06:12.120 ,0,0,0.,1.2,6.,1.2,6.,1.2,0.,1.2
1979-07-21 18:06:13.320 ,0,0,1.,1.2,7.,1.2,5.,1.2,0.,1.2
1979-07-21 18:06:14.520 ,0,0,0.,1.2,2.,1.2,4.,1.2,0.,1.2
1979-07-21 18:06:15.720 ,0,0,0.,1.2,7.,1.2,3.,1.2,0.,1.2
1979-07-21 18:06:16.920 ,0,0,0.,1.2,9.,1.2,2.,1.2,0.,1.2
1979-07-21 18:06:18.120 ,0,0,0.,1.2,3.,1.2,3.,1.2,0.,1.2
1979-07-21 18:06:19.320 ,0,0,0.,1.2,6.,1.2,9.,1.2,0.,1.2
1979-07-21 18:06:20.520 ,0,0,0.,1.2,12.,1.2,3.,1.2,0.,1.2
1979-07-21 18:06:21.720 ,0,0,0.,1.2,2.,1.2,8.,1.2,0.,1.2
1979-07-21 18:06:22.920 ,5,0,0.,1.2,212.,1.2,0.,1.2,0.,1.2
1979-07-21 18:06:24.120 ,5,0,4.,1.2,1.,1.2,0.,1.2,0.,1.2
1979-07-21 18:06:25.320 ,5,0,1.,1.2,10.,1.2,0.,1.2,0.,1.2
1979-07-21 18:06:26.520 ,5,0,1.,1.2,6.,1.2,0.,1.2,0.,1.2
1979-07-21 18:06:27.720 ,5,0,1.,1.2,5.,1.2,0.,1.2,0.,1.2
1979-07-21 18:06:28.920 ,5,0,3.,1.2,208.,1.2,0.,1.2,0.,1.2
1979-07-21 18:06:30.120 ,5,0,0.,1.2,4.,1.2,0.,1.2,0.,1.2
1979-07-21 18:06:31.320 ,5,0,2.,1.2,5.,1.2,0.,1.2,0.,1.2
1979-07-21 18:06:32.520 ,5,0,0.,1.2,5.,1.2,0.,1.2,0.,1.2
1979-07-21 18:06:33.720 ,5,0,4.,1.2,5.,1.2,0.,1.2,0.,1.2
1979-07-21 18:06:34.920 ,5,0,1.,1.2,2.,1.2,1.,1.2,0.,1.2
1979-07-21 18:06:36.120 ,5,0,3.,1.2,7.,1.2,0.,1.2,0.,1.2
1979-07-21 18:06:37.320 ,5,0,1.,1.2,2.,1.2,0.,1.2,0.,1.2
1979-07-21 18:06:38.520 ,5,0,1.,1.2,2.,1.2,0.,1.2,0.,1.2
1979-07-21 18:06:39.720 ,5,0,1.,1.2,1.,1.2,0.,1.2,0.,1.2
1979-07-21 18:06:40.920 ,5,0,0.,1.2,4.,1.2,0.,1.2,0.,1.2
1979-07-21 18:06:42.120 ,5,0,2.,1.2,6.,1.2,0.,1.2,0.,1.2
1979-07-21 18:06:43.320 ,5,0,1.,1.2,5.,1.2,0.,1.2,0.,1.2
1979-07-21 18:06:44.520 ,5,0,1.,1.2,6.,1.2,0.,1.2,0.,1.2
1979-07-21 18:06:45.720 ,5,0,1.,1.2,4.,1.2,1.,1.2,0.,1.2
1979-07-21 18:06:46.920 ,5,0,2.,1.2,6.,1.2,0.,1.2,0.,1.2
1979-07-21 18:06:48.120 ,5,0,1.,1.2,7.,1.2,0.,1.2,0.,1.2
1979-07-21 18:06:49.320 ,5,0,2.,1.2,5.,1.2,0.,1.2,0.,1.2
1979-07-21 18:06:50.520 ,5,0,1.,1.2,14.,1.2,0.,1.2,0.,1.2
1979-07-21 18:06:51.720 ,5,0,2.,1.2,4.,1.2,0.,1.2,0.,1.2
1979-07-21 18:06:52.920 ,5,0,0.,1.2,2.,1.2,0.,1.2,0.,1.2
1979-07-21 18:06:54.120 ,5,0,1.,1.2,4.,1.2,0.,1.2,0.,1.2
1979-07-21 18:06:55.320 ,5,0,2.,1.2,9.,1.2,0.,1.2,0.,1.2
1979-07-21 18:06:56.520 ,5,0,1.,1.2,6.,1.2,0.,1.2,0.,1.2
1979-07-21 18:06:57.720 ,5,0,4.,1.2,4.,1.2,0.,1.2,0.,1.2
1979-07-21 18:06:58.920 ,5,0,3.,1.2,3.,1.2,0.,1.2,1.,1.2
1979-07-21 18:07:00.120 ,5,0,3.,1.2,6.,1.2,0.,1.2,0.,1.2
1979-07-21 18:07:01.320 ,5,0,4.,1.2,5.,1.2,0.,1.2,0.,1.2
1979-07-21 18:07:02.520 ,5,0,1.,1.2,7.,1.2,0.,1.2,0.,1.2
1979-07-21 18:07:03.720 ,5,0,3.,1.2,5.,1.2,0.,1.2,0.,1.2
1979-07-21 18:07:04.920 ,5,0,3.,1.2,10.,1.2,0.,1.2,0.,1.2
1979-07-21 18:07:06.120 ,5,0,1.,1.2,5.,1.2,0.,1.2,0.,1.2
1979-07-21 18:07:07.320 ,5,0,1.,1.2,4.,1.2,0.,1.2,0.,1.2
1979-07-21 18:07:08.520 ,5,0,3.,1.2,4.,1.2,0.,1.2,0.,1.2
1979-07-21 18:07:09.720 ,5,0,5.,1.2,6.,1.2,0.,1.2,0.,1.2
1979-07-21 18:07:10.920 ,4,0,1.,1.2,3.,1.2,1.,1.2,1.,1.2
1979-07-21 18:07:12.120 ,4,0,1.,1.2,3.,1.2,0.,1.2,28160.,1.2
1979-07-21 18:07:13.320 ,4,0,3.,1.2,5.,1.2,0.,1.2,0.,1.2
1979-07-21 18:07:14.520 ,4,0,2.,1.2,6.,1.2,2.,1.2,0.,1.2
1979-07-21 18:07:15.720 ,4,0,4.,1.2,7.,1.2,0.,1.2,0.,1.2
1979-07-21 18:07:16.920 ,4,0,1.,1.2,168.,1.2,0.,1.2,0.,1.2
1979-07-21 18:07:18.120 ,4,0,0.,1.2,8.,1.2,0.,1.2,0.,1.2
1979-07-21 18:07:19.320 ,4,0,2.,1.2,7.,1.2,0.,1.2,0.,1.2
1979-07-21 18:07:20.520 ,4,0,1.,1.2,4.,1.2,0.,1.2,0.,1.2
1979-07-21 18:07:21.720 ,4,0,0.,1.2,2.,1.2,1.,1.2,0.,1.2
1979-07-21 18:07:22.920 ,4,0,3.,1.2,0.,1.2,0.,1.2,0.,1.2
1979-07-21 18:07:24.120 ,4,0,1.,1.2,7.,1.2,0.,1.2,0.,1.2
1979-07-21 18:07:25.320 ,4,0,0.,1.2,3.,1.2,0.,1.2,0.,1.2
1979-07-21 18:07:26.520 ,4,0,2.,1.2,3.,1.2,0.,1.2,0.,1.2
1979-07-21 18:07:27.720 ,4,0,4.,1.2,6.,1.2,0.,1.2,0.,1.2
1979-07-21 18:07:28.920 ,4,0,2.,1.2,5.,1.2,0.,1.2,0.,1.2
1979-07-21 18:07:30.120 ,4,0,2.,1.2,2.,1.2,0.,1.2,0.,1.2
1979-07-21 18:07:31.320 ,4,0,1.,1.2,5.,1.2,0.,1.2,0.,1.2
1979-07-21 18:07:32.520 ,4,0,3.,1.2,8.,1.2,0.,1.2,0.,1.2
1979-07-21 18:07:33.720 ,4,0,4.,1.2,5.,1.2,0.,1.2,0.,1.2
1979-07-21 18:07:34.920 ,4,0,0.,1.2,7.,1.2,0.,1.2,0.,1.2
1979-07-21 18:07:36.120 ,4,0,2.,1.2,11.,1.2,0.,1.2,0.,1.2
1979-07-21 18:07:37.320 ,4,0,1.,1.2,2.,1.2,0.,1.2,0.,1.2
1979-07-21 18:07:38.520 ,4,0,2.,1.2,6.,1.2,0.,1.2,0.,1.2
1979-07-21 18:07:39.720 ,4,0,5.,1.2,7.,1.2,0.,1.2,0.,1.2
1979-07-21 18:07:40.920 ,4,0,0.,1.2,2.,1.2,0.,1.2,0.,1.2
1979-07-21 18:07:42.120 ,4,0,1.,1.2,6.,1.2,0.,1.2,0.,1.2
1979-07-21 18:07:43.320 ,4,0,0.,1.2,7.,1.2,0.,1.2,0.,1.2
1979-07-21 18:07:44.520 ,4,0,1.,1.2,6.,1.2,0.,1.2,0.,1.2
1979-07-21 18:07:45.720 ,4,0,1.,1.2,4.,1.2,0.,1.2,0.,1.2
1979-07-21 18:07:46.920 ,4,0,1.,1.2,3.,1.2,0.,1.2,0.,1.2
1979-07-21 18:07:48.120 ,4,0,2.,1.2,7.,1.2,0.,1.2,0.,1.2
1979-07-21 18:07:49.320 ,4,0,1.,1.2,6.,1.2,0.,1.2,0.,1.2
1979-07-21 18:07:50.520 ,4,0,3.,1.2,5.,1.2,1.,1.2,0.,1.2
1979-07-21 18:07:51.720 ,4,0,1.,1.2,10.,1.2,0.,1.2,1.,1.2
1979-07-21 18:07:52.920 ,4,0,3.,1.2,4.,1.2,0.,1.2,0.,1.2
1979-07-21 18:07:54.120 ,4,0,2.,1.2,5.,1.2,0.,1.2,1.,1.2
1979-07-21 18:07:55.320 ,4,0,0.,1.2,4.,1.2,0.,1.2,0.,1.2
1979-07-21 18:07:56.520 ,4,0,4.,1.2,7.,1.2,0.,1.2,0.,1.2
1979-07-21 18:07:57.720 ,4,0,0.,1.2,7.,1.2,0.,1.2,0.,1.2
1979-07-21 18:07:58.920 ,3,0,4.,1.2,4.,1.2,1.,1.2,0.,1.2
1979-07-21 18:08:00.120 ,3,0,1.,1.2,3.,1.2,1.,1.2,0.,1.2
1979-07-21 18:08:01.320 ,3,0,1.,1.2,6.,1.2,0.,1.2,0.,1.2
1979-07-21 18:08:02.520 ,3,0,0.,1.2,5.,1.2,0.,1.2,0.,1.2
1979-07-21 18:08:03.720 ,3,0,2.,1.2,4.,1.2,0.,1.2,0.,1.2
1979-07-21 18:08:04.920 ,3,0,1.,1.2,184.,1.2,0.,1.2,0.,1.2
1979-07-21 18:08:06.120 ,3,0,0.,1.2,2.,1.2,0.,1.2,0.,1.2
1979-07-21 18:08:07.320 ,3,0,0.,1.2,3.,1.2,0.,1.2,0.,1.2
1979-07-21 18:08:08.520 ,3,0,5.,1.2,1.,1.2,0.,1.2,0.,1.2
1979-07-21 18:08:09.720 ,3,0,2.,1.2,2.,1.2,0.,1.2,0.,1.2
1979-07-21 18:08:10.920 ,3,0,1.,1.2,3.,1.2,0.,1.2,0.,1.2
1979-07-21 18:08:12.120 ,3,0,4.,1.2,3.,1.2,0.,1.2,0.,1.2
1979-07-21 18:08:13.320 ,3,0,1.,1.2,8.,1.2,0.,1.2,0.,1.2
1979-07-21 18:08:14.520 ,3,0,3.,1.2,3.,1.2,0.,1.2,0.,1.2
1979-07-21 18:08:15.720 ,3,0,4.,1.2,4.,1.2,0.,1.2,0.,1.2
1979-07-21 18:08:16.920 ,3,0,4.,1.2,6.,1.2,0.,1.2,0.,1.2
1979-07-21 18:08:18.120 ,3,0,1.,1.2,2.,1.2,0.,1.2,0.,1.2
1979-07-21 18:08:19.320 ,3,0,2.,1.2,3.,1.2,0.,1.2,0.,1.2
1979-07-21 18:08:20.520 ,3,0,1.,1.2,6.,1.2,0.,1.2,0.,1.2
1979-07-21 18:08:21.720 ,3,0,0.,1.2,6.,1.2,0.,1.2,0.,1.2
1979-07-21 18:08:22.920 ,3,0,1.,1.2,4.,1.2,0.,1.2,0.,1.2
1979-07-21 18:08:24.120 ,3,0,2.,1.2,4.,1.2,0.,1.2,0.,1.2
1979-07-21 18:08:25.320 ,3,0,1.,1.2,4.,1.2,0.,1.2,0.,1.2
1979-07-21 18:08:26.520 ,3,0,3.,1.2,5.,1.2,0.,1.2,0.,1.2
1979-07-21 18:08:27.720 ,3,0,1.,1.2,4.,1.2,0.,1.2,0.,1.2
1979-07-21 18:08:28.920 ,3,0,2.,1.2,6.,1.2,0.,1.2,0.,1.2
1979-07-21 18:08:30.120 ,3,0,0.,1.2,5.,1.2,0.,1.2,0.,1.2
1979-07-21 18:08:31.320 ,3,0,0.,1.2,5.,1.2,0.,1.2,0.,1.2
1979-07-21 18:08:32.520 ,3,0,1.,1.2,9.,1.2,0.,1.2,0.,1.2
1979-07-21 18:08:33.720 ,3,0,0.,1.2,6.,1.2,0.,1.2,0.,1.2
1979-07-21 18:08:34.920 ,3,0,0.,1.2,8.,1.2,0.,1.2,0.,1.2